Main page
METAR-TAF:

METAR-TAF

Airports :

Carmi Municipal Airport

Carmi, Illinois, United States

latitude: 38-05-22N, longitude: 088-07-23W, elevation: 387 ft

Current weather observation

The report was made 25 minutes ago, at 18:15 UTC
Wind 3 mph from the Southeast
Temperature 86°F
Humidity 66%
Pressure 30.13 in. Hg
Visibility: 10 miles
Scattered clouds at a height of 3900 ft
Scattered clouds at a height of 4500 ft

METAR: KCUL 241815Z AUTO 13003KT 10SM SCT039 SCT045 30/23 A3013 RMK AO2 T03010230

Time: 13:40 (18:40 UTC)


TAF: missing

Weather observations and forecasts of more than 4000 airports (METAR and TAF reports).

The available stations are represented by yellow and red dots on the map.

Hover mouse over dot to see the name of the station.

Then click to see weather observations and forecasts.

To change the map : click on the green buttons with a black cross to zoom in, on the green button with a dash to zoom out, or on the green arrows for adjacent maps.


METAR-TAF: